• Em Portugal
  • Lista de países
  • Para 7 dias
  • Temperatura da água
  • Mapas de satélite
  • Mapa do tempo
  • Widgets de tempo
  • user-avatar
    Iniciar Sessão

    Previsão horária em Serove

    Hoje, 18 Agosto, Sábado

    Tempo Temperatura Precipitação Vento Pressão Humidade
    00:00 +22°C° 0 mm 3 m/s 668 mmHg 17%
    01:00 +21°C° 0 mm 3 m/s 668 mmHg 15%
    02:00 +20°C° 0 mm 4 m/s 668 mmHg 13%
    03:00 +19°C° 0 mm 4 m/s 668 mmHg 14%
    04:00 +19°C° 0 mm 4 m/s 668 mmHg 14%
    05:00 +18°C° 0 mm 4 m/s 668 mmHg 15%
    06:00 +18°C° 0 mm 4 m/s 669 mmHg 17%
    07:00 +18°C° 0 mm 4 m/s 669 mmHg 18%
    08:00 +18°C° 0 mm 4 m/s 670 mmHg 21%
    09:00 +20°C° 0 mm 5 m/s 670 mmHg 30%
    10:00 +21°C° 0 mm 6 m/s 671 mmHg 38%
    11:00 +23°C° 0 mm 6 m/s 671 mmHg 47%
    12:00 +23°C° 0 mm 7 m/s 671 mmHg 46%
    13:00 +24°C° 0 mm 7 m/s 670 mmHg 46%
    14:00 +24°C° 0 mm 6 m/s 670 mmHg 46%
    15:00 +23°C° 0 mm 7 m/s 670 mmHg 49%
    16:00 +23°C° 0 mm 7 m/s 670 mmHg 52%
    17:00 +22°C° 0 mm 7 m/s 669 mmHg 55%
    18:00 +20°C° 0 mm 7 m/s 670 mmHg 60%
    19:00 +18°C° 0 mm 7 m/s 670 mmHg 65%
    20:00 +16°C° 0 mm 7 m/s 670 mmHg 70%
    21:00 +16°C° 0 mm 7 m/s 670 mmHg 72%
    22:00 +15°C° 0 mm 7 m/s 670 mmHg 74%
    23:00 +15°C° 0 mm 7 m/s 671 mmHg 77%

    Amanhã, 19 Agosto, Domingo

    Tempo Temperatura Precipitação Vento Pressão Humidade
    00:00 +14°C° 0 mm 7 m/s 671 mmHg 77%
    01:00 +14°C° 0 mm 7 m/s 670 mmHg 78%
    02:00 +14°C° 0 mm 7 m/s 670 mmHg 79%
    03:00 +14°C° 0 mm 6 m/s 670 mmHg 79%
    04:00 +13°C° 0 mm 6 m/s 670 mmHg 80%
    05:00 +13°C° 0 mm 6 m/s 670 mmHg 80%
    06:00 +13°C° 0 mm 6 m/s 670 mmHg 79%
    07:00 +14°C° 0 mm 6 m/s 670 mmHg 77%
    08:00 +14°C° 0 mm 6 m/s 671 mmHg 76%
    09:00 +16°C° 0 mm 6 m/s 671 mmHg 67%
    10:00 +19°C° 0 mm 5 m/s 671 mmHg 58%
    11:00 +21°C° 0 mm 5 m/s 672 mmHg 49%
    12:00 +23°C° 0 mm 5 m/s 671 mmHg 44%
    13:00 +25°C° 0 mm 4 m/s 671 mmHg 38%
    14:00 +27°C° 0 mm 3 m/s 670 mmHg 33%
    15:00 +27°C° 0 mm 3 m/s 670 mmHg 32%
    16:00 +27°C° 0 mm 2 m/s 669 mmHg 30%
    17:00 +27°C° 0 mm 2 m/s 669 mmHg 29%
    18:00 +26°C° 0 mm 2 m/s 669 mmHg 33%
    19:00 +24°C° 0 mm 3 m/s 669 mmHg 37%
    20:00 +22°C° 0 mm 3 m/s 669 mmHg 42%
    21:00 +21°C° 0 mm 3 m/s 669 mmHg 45%
    22:00 +20°C° 0 mm 3 m/s 669 mmHg 49%
    23:00 +19°C° 0 mm 3 m/s 669 mmHg 52%

    Depois de amanhã, 20 Agosto, Segunda-feira

    Tempo Temperatura Precipitação Vento Pressão Humidade
    00:00 +18°C° 0 mm 3 m/s 669 mmHg 55%
    01:00 +18°C° 0 mm 3 m/s 669 mmHg 58%
    02:00 +17°C° 0 mm 3 m/s 669 mmHg 61%
    03:00 +17°C° 0 mm 2 m/s 668 mmHg 63%
    04:00 +16°C° 0 mm 2 m/s 668 mmHg 65%
    05:00 +16°C° 0 mm 2 m/s 668 mmHg 67%
    06:00 +17°C° 0 mm 3 m/s 668 mmHg 64%
    07:00 +18°C° 0 mm 3 m/s 669 mmHg 60%
    08:00 +19°C° 0 mm 3 m/s 669 mmHg 56%
    09:00 +22°C° 0 mm 3 m/s 670 mmHg 46%
    10:00 +26°C° 0 mm 4 m/s 670 mmHg 36%
    11:00 +29°C° 0 mm 4 m/s 671 mmHg 26%
    12:00 +30°C° 0 mm 3 m/s 670 mmHg 23%
    13:00 +31°C° 0 mm 2 m/s 670 mmHg 19%
    14:00 +32°C° 0 mm 2 m/s 669 mmHg 15%
    15:00 +32°C° 0 mm 2 m/s 669 mmHg 15%
    16:00 +32°C° 0 mm 2 m/s 668 mmHg 15%
    17:00 +31°C° 0 mm 2 m/s 668 mmHg 15%
    18:00 +29°C° 0 mm 2 m/s 668 mmHg 17%
    19:00 +28°C° 0 mm 2 m/s 668 mmHg 19%
    20:00 +26°C° 0 mm 2 m/s 668 mmHg 22%
    21:00 +25°C° 0 mm 2 m/s 668 mmHg 23%
    22:00 +24°C° 0 mm 2 m/s 668 mmHg 24%
    23:00 +23°C° 0 mm 2 m/s 668 mmHg 26%

    21 Agosto, Terça-feira

    Tempo Temperatura Precipitação Vento Pressão Humidade
    00:00 +23°C° 0 mm 2 m/s 668 mmHg 27%
    01:00 +21°C° 0 mm 2 m/s 668 mmHg 28%
    02:00 +20°C° 0 mm 2 m/s 667 mmHg 29%
    03:00 +20°C° 0 mm 2 m/s 667 mmHg 31%
    04:00 +20°C° 0 mm 3 m/s 667 mmHg 32%
    05:00 +19°C° 0 mm 3 m/s 667 mmHg 33%
    06:00 +20°C° 0 mm 3 m/s 667 mmHg 31%
    07:00 +21°C° 0 mm 3 m/s 668 mmHg 28%
    08:00 +22°C° 0 mm 4 m/s 669 mmHg 26%
    09:00 +26°C° 0 mm 4 m/s 669 mmHg 22%
    10:00 +29°C° 0 mm 5 m/s 670 mmHg 19%
    11:00 +33°C° 0 mm 5 m/s 670 mmHg 15%
    12:00 +33°C° 0 mm 5 m/s 670 mmHg 13%
    13:00 +34°C° 0 mm 4 m/s 669 mmHg 12%
    14:00 +35°C° 0 mm 4 m/s 668 mmHg 11%
    15:00 +34°C° 0 mm 3 m/s 668 mmHg 11%
    16:00 +34°C° 0 mm 3 m/s 668 mmHg 11%
    17:00 +33°C° 0 mm 3 m/s 668 mmHg 12%
    18:00 +30°C° 0 mm 3 m/s 668 mmHg 13%
    19:00 +29°C° 0 mm 2 m/s 668 mmHg 15%
    20:00 +27°C° 0 mm 2 m/s 668 mmHg 17%
    21:00 +26°C° 0 mm 2 m/s 668 mmHg 18%
    22:00 +25°C° 0 mm 2 m/s 668 mmHg 19%
    23:00 +24°C° 0 mm 2 m/s 668 mmHg 20%

    22 Agosto, Quarta-feira

    Tempo Temperatura Precipitação Vento Pressão Humidade
    00:00 +24°C° 0 mm 2 m/s 667 mmHg 20%
    01:00 +23°C° 0 mm 2 m/s 667 mmHg 20%
    02:00 +21°C° 0 mm 2 m/s 667 mmHg 20%
    03:00 +21°C° 0 mm 3 m/s 667 mmHg 21%
    04:00 +20°C° 0 mm 3 m/s 667 mmHg 21%
    05:00 +20°C° 0 mm 3 m/s 667 mmHg 22%
    06:00 +20°C° 0 mm 4 m/s 667 mmHg 23%
    07:00 +21°C° 0 mm 5 m/s 668 mmHg 23%
    08:00 +22°C° 0 mm 5 m/s 669 mmHg 23%
    09:00 +25°C° 0 mm 5 m/s 669 mmHg 23%
    10:00 +27°C° 0 mm 5 m/s 669 mmHg 22%
    11:00 +29°C° 0 mm 6 m/s 669 mmHg 21%
    12:00 +30°C° 0 mm 5 m/s 669 mmHg 19%
    13:00 +32°C° 0 mm 5 m/s 668 mmHg 17%
    14:00 +34°C° 0 mm 4 m/s 668 mmHg 15%
    15:00 +33°C° 0 mm 4 m/s 668 mmHg 15%
    16:00 +33°C° 0 mm 4 m/s 667 mmHg 14%
    17:00 +33°C° 0 mm 3 m/s 667 mmHg 14%
    18:00 +30°C° 0 mm 3 m/s 667 mmHg 17%
    19:00 +28°C° 0 mm 3 m/s 667 mmHg 21%
    20:00 +26°C° 0 mm 3 m/s 667 mmHg 24%
    21:00 +25°C° 0 mm 3 m/s 667 mmHg 30%
    22:00 +24°C° 0 mm 3 m/s 667 mmHg 35%
    23:00 +22°C° 0 mm 3 m/s 667 mmHg 41%

    23 Agosto, Quinta-feira

    Tempo Temperatura Precipitação Vento Pressão Humidade
    00:00 +22°C° 0 mm 4 m/s 667 mmHg 45%
    01:00 +21°C° 0 mm 4 m/s 667 mmHg 49%
    02:00 +20°C° 0 mm 4 m/s 666 mmHg 52%
    03:00 +20°C° 0 mm 4 m/s 666 mmHg 54%
    04:00 +19°C° 0 mm 4 m/s 666 mmHg 55%
    05:00 +19°C° 0 mm 4 m/s 666 mmHg 57%
    06:00 +19°C° 0 mm 4 m/s 666 mmHg 54%
    07:00 +20°C° 0 mm 5 m/s 666 mmHg 51%
    08:00 +20°C° 0 mm 5 m/s 667 mmHg 49%
    09:00 +23°C° 0 mm 5 m/s 667 mmHg 40%
    10:00 +27°C° 0 mm 5 m/s 668 mmHg 31%
    11:00 +30°C° 0 mm 5 m/s 668 mmHg 22%
    12:00 +32°C° 0 mm 5 m/s 667 mmHg 18%
    13:00 +34°C° 0 mm 4 m/s 667 mmHg 15%
    14:00 +35°C° 0 mm 4 m/s 666 mmHg 11%
    15:00 +35°C° 0 mm 4 m/s 666 mmHg 11%
    16:00 +35°C° 0 mm 3 m/s 666 mmHg 11%
    17:00 +34°C° 0 mm 3 m/s 665 mmHg 10%
    18:00 +31°C° 0 mm 3 m/s 665 mmHg 13%
    19:00 +29°C° 0 mm 2 m/s 665 mmHg 15%
    20:00 +27°C° 0 mm 2 m/s 665 mmHg 17%
    21:00 +27°C° 0 mm 3 m/s 665 mmHg 22%
    22:00 +26°C° 0 mm 4 m/s 665 mmHg 26%
    23:00 +25°C° 0 mm 5 m/s 665 mmHg 31%
    Mostrar mais